Flag for U.S.A. Weather past 2 weeks in Louisville, Kentucky, U.S.A.

Now
27 °F

Clear.


Feels Like: 23 °F
Forecast: 21 / 42 °F
Wind: 3 mph from North

Location: Standiford Field

Current Time: Jan 28, 2015 at 12:19:45 AM

Latest Report: Jan 27, 2015 at 11:56 PM


Visibility: 10 mi

Pressure: 30.27 "Hg

Humidity: 55%

Dew point: 13 °F

Location of LouisvilleLocation

Historic Weather in Louisville — Graph

°F

Louisville temperature yesterday

Maximum temperature yesterday: 35 °F (at 1:56 PM)
Minimum temperature yesterday: 27 °F (at 9:56 PM)
Average temperature yesterday: 31 °F

Past Weeks' High & Low Weather Summary

 TemperatureHumidityPressure
High60 °F (Jan 20, 2:56 PM)96% (Jan 23, 7:56 PM)30.57 "Hg (Jan 23, 7:56 PM)
Low26 °F (Jan 13, 7:56 AM)29% (Jan 19, 2:56 PM)29.61 "Hg (Jan 25, 2:56 PM)
Average37 °F68%30.09 "Hg
* Reported Jan 12 10:56 PM — Jan 27 10:56 PM, Louisville, Weather by CustomWeather, © 2014

Note: Actual official high and low records may vary slightly from our data, if they occured in-between our weather recording intervals... More about our weather records

Advertising

Louisville weather history for previous 24 hours

 ConditionsComfort  
Time TempWeatherWind HumidityBarometerVisibility
10:56 PM
Jan 27
27 °FClear.3 mph55%30.27 "Hg10 mi
9:56 PM27 °FClear.6 mph58%30.27 "Hg10 mi
8:56 PM29 °FPassing clouds.10 mph51%30.25 "Hg10 mi
7:56 PM30 °FPassing clouds.10 mph51%30.23 "Hg10 mi
6:56 PM32 °FPartly cloudy.8 mph59%30.19 "Hg10 mi
5:56 PM34 °FPartly sunny.10 mph59%30.18 "Hg9 mi
4:56 PM34 °FMostly cloudy.9 mph61%30.16 "Hg9 mi
3:56 PM35 °FMostly cloudy.8 mph56%30.13 "Hg9 mi
2:56 PM35 °FMostly cloudy.9 mph59%30.11 "Hg9 mi
1:56 PM35 °FMore clouds than sun.7 mph61%30.10 "Hg8 mi
12:56 PM34 °FMostly cloudy.8 mph67%30.10 "Hg8 mi
11:56 AM34 °FMore clouds than sun.8 mph76%30.10 "Hg6 mi
10:56 AM32 °FOvercast.7 mph82%30.09 "Hg5 mi
9:56 AM31 °FLight snow. Ice fog.7 mph82%30.07 "Hg4 mi
9:04 AM31 °FIce fog.6 mph85%30.03 "Hg3 mi
8:56 AM31 °FLight snow. Ice fog.7 mph85%30.04 "Hg3 mi
7:56 AM30 °FLight snow. Ice fog.6 mph89%30.01 "Hg4 mi
6:56 AM30 °FLight snow. Ice fog.7 mph85%29.97 "Hg6 mi
5:56 AM30 °FMostly cloudy.5 mph85%29.94 "Hg7 mi
4:56 AM30 °FLight snow. Ice fog.3 mph89%29.93 "Hg5 mi
3:56 AM30 °FLight snow. Ice fog.No wind89%29.93 "Hg4 mi
2:56 AM30 °FLight snow. Ice fog.3 mph89%29.93 "Hg2 mi
1:56 AM29 °FLight snow. Ice fog.3 mph89%29.93 "Hg5 mi
12:56 AM30 °FLight snow. Ice fog.3 mph85%29.94 "Hg3 mi
Weather by CustomWeather, © 2014

See weather overviewHow to use our weather pages